Weather Service Report


209 
ASUS44 KBMX 180510
RWRAL 
             
ALABAMA REGIONAL WEATHER ROUNDUP
NATIONAL WEATHER SERVICE BIRMINGHAM AL
1200 AM CDT FRI APR 18 2014

NOTE: "FAIR" INDICATES FEW OR NO CLOUDS BELOW 12,000 FEET
WITH NO SIGNIFICANT WEATHER AND/OR OBSTRUCTIONS TO VISIBILITY.

THE REMARK "TC" DENOTES TEMPERATURE IN DEGREES CELSIUS.

ALZ001>011-014-016>018-020-180600-
NORTH ALABAMA
  
CITY           SKY/WX    TMP DP  RH WIND       PRES   REMARKS
MUSCLE SHOALS  CLOUDY    58  48  69 SE5       30.27R                  
HUNTSVILLE     CLOUDY    60  47  61 SE8       30.27R                  
DECATUR        CLOUDY    58  46  64 E3        30.28R                  
HALEYVILLE     CLOUDY    58  47  66 SE3       30.29R                  
GADSDEN        NOT AVBL                                               
$$
 
ALZ012-013-022-023-030>036-040>044-180600-
WEST CENTRAL ALABAMA
  
CITY           SKY/WX    TMP DP  RH WIND       PRES   REMARKS
TUSCALOOSA     CLOUDY    62  50  64 VRB6      30.25R                  
$$
 
ALZ015-024>027-033>036-040>044-180600-
CENTRAL ALABAMA
  
CITY           SKY/WX    TMP DP  RH WIND       PRES   REMARKS
BIRMINGHAM     CLOUDY    61  46  57 SE8G18    30.28R                  
MONTGOMERY     CLOUDY    62  48  60 NE10      30.23F                  
SHELBY CO ARPT CLOUDY    59  49  69 E5        30.26S                  
MAXWELL AFB    CLOUDY    64  53  67 NE9       30.23F                  
GREENVILLE     CLOUDY    61  51  70 E7        30.21S                  
$$
 
ALZ019-021-028-029-037-038-045>048-180600-
EAST CENTRAL ALABAMA
  
CITY           SKY/WX    TMP DP  RH WIND       PRES   REMARKS
ANNISTON       CLOUDY    60  44  55 NE6       30.29R                  
ALEXANDER CITY CLOUDY    60  46  60 CALM      30.29S                  
AUBURN         CLOUDY    57  45  62 E10       30.29F                  
$$
 
ALZ051>064-180600-
SOUTHWEST ALABAMA
  
CITY           SKY/WX    TMP DP  RH WIND       PRES   REMARKS
MOBILE         RAIN      60  60 100 E10       30.17F FOG              
BROOKLEY FIELD LGT RAIN  62  59  90 E10       30.18F                  
EVERGREEN      CLOUDY    63  53  70 E5        30.22F                  
$$

ALZ049-050-065>069-180600-
SOUTHEAST ALABAMA
  
CITY           SKY/WX    TMP DP  RH WIND       PRES   REMARKS
DOTHAN         CLOUDY    63  54  72 E12G17    30.24F                  
OZARK          CLOUDY    63  55  74 E9        30.20S                  
TROY           CLOUDY    61  51  70 E5        30.23F                  
EUFAULA        CLOUDY    63  49  60 NE6       30.23F                  
$$

Return to Home page


Western Regional Climate Center, wrcc@dri.edu